This is the latest recevied weather packets stored in our database for station/object WA2TQI. If no packets are shown the sender has not sent any weather packets the latest 10 day(s).
| Time | Temp. | Humidity | Pressure | Rain* | Wind** | Luminosity | Snow |
|---|---|---|---|---|---|---|---|
| 1777649549 | 15° C | 55% | 1015.1 hPa | 0 mm | - | - | - |
| 1777649245 | 15° C | 55% | 1015.2 hPa | 0 mm | - | - | - |
| 1777648942 | 14.44° C | 57% | 1015.5 hPa | 0 mm | - | - | - |
| 1777648639 | 14.44° C | 56% | 1015.6 hPa | 0 mm | - | - | - |
| 1777648336 | 14.44° C | 58% | 1015.6 hPa | 0 mm | - | - | - |
| 1777648032 | 14.44° C | 56% | 1015.5 hPa | 0 mm | - | - | - |
| 1777647728 | 15° C | 58% | 1015.6 hPa | 0 mm | - | - | - |
| 1777647425 | 14.44° C | 57% | 1015.4 hPa | 0 mm | - | - | - |
| 1777647123 | 13.89° C | 60% | 1015.3 hPa | 0 mm | - | - | - |
| 1777646818 | 13.89° C | 57% | 1015.5 hPa | 0 mm | - | - | - |
| 1777646514 | 14.44° C | 57% | 1015.3 hPa | 0 mm | - | - | - |
| 1777646210 | 13.89° C | 61% | 1015.5 hPa | 0 mm | - | - | - |
| 1777645908 | 13.89° C | 63% | 1015.5 hPa | 0 mm | - | - | - |
| 1777645605 | 13.89° C | 63% | 1015.5 hPa | 0 mm | - | - | - |
| 1777645301 | 13.33° C | 65% | 1015.6 hPa | 0 mm | - | - | - |
| 1777644997 | 13.33° C | 66% | 1015.6 hPa | 0 mm | - | - | - |
| 1777644695 | 12.78° C | 67% | 1015.5 hPa | 0 mm | - | - | - |
| 1777644390 | 13.33° C | 66% | 1015.6 hPa | 0 mm | - | - | - |
| 1777644087 | 13.89° C | 65% | 1015.3 hPa | 0 mm | - | - | - |
| 1777643784 | 13.33° C | 65% | 1015.7 hPa | 0 mm | - | - | - |
| 1777643481 | 12.78° C | 66% | 1015.5 hPa | 0 mm | - | - | - |
| 1777643177 | 13.33° C | 67% | 1015.7 hPa | 0 mm | - | - | - |
| 1777642874 | 13.33° C | 66% | 1015.5 hPa | 0 mm | - | - | - |
| 1777642571 | 12.78° C | 67% | 1015.6 hPa | 0 mm | - | - | - |
| 1777642268 | 12.78° C | 67% | 1015.5 hPa | 0 mm | - | - | - |
* Rain latest hour (hover to see other rain measurements)
** Current wind speed in m/s (hover to see current wind gust speed)